Weather History for West Palm Beach, FL

Change the Weather History Date:

Wednesday, November 5, 2014

  Actual Average Record
Temperature  
Mean Temperature 78 °F 74 °F  
Max Temperature 82 °F 82 °F 91 °F (1992)
Min Temperature 74 °F 67 °F 45 °F (1927)
Degree Days  
Heating Degree Days 0 0  
Month to date heating degree days 8 0  
Since 1 July heating degree days 8 1  
Cooling Degree Days 13 10  
Month to date cooling degree days 25 50  
Year to date cooling degree days 3961 3671  
Growing Degree Days 28 (Base 50)    
Moisture  
Dew Point 64 °F    
Average Humidity 64    
Maximum Humidity 74    
Minimum Humidity 54    
Precipitation  
Precipitation 0.02 in 0.17 in 3.94 in (1981)
Month to date precipitation 0.02 0.86  
Year to date precipitation 57.61 55.06  
Snow  
Snow 0.00 in - - ()
Month to date snowfall 0.0  
Since 1 July snowfall 0.0  
Since 1 September snowfall 0.0  
Snow Depth 0.00 in    
Sea Level Pressure  
Sea Level Pressure 30.14 in    
Wind  
Wind Speed 15 mph (ENE)    
Max Wind Speed 24 mph    
Max Gust Speed 29 mph    
Visibility 10 miles    
Events Rain    
T = Trace of Precipitation, MM = Missing Value Source: NWS Daily Summary

Daily Weather History Graph

Daily Weather History Graph

Search for Another Location

Airport:

Trip Planner

Search our weather history database for the weather conditions in past years. The results will help you decide how hot, cold, wet, or windy it might be!

Date:

Astronomy

Nov. 05, 2014 Rise Set
Actual Time 6:32 AM EST 5:35 PM EST
Civil Twilight 6:08 AM EST 5:59 PM EST
Nautical Twilight 5:40 AM EST 6:26 PM EST
Astronomical Twilight 5:13 AM EST 6:53 PM EST
Moon 4:52 PM EST (11/5) 5:05 AM EST (11/5)
Length of Visible Light 11h 50m
Length of Day
11h 02m
Waxing Gibbous, 98% of the Moon is Illuminated
Nov 5
Waxing Gibbous
Nov 6
Full
Nov 14
Last Quarter
Nov 22
New
Nov 29
First Quarter

Hourly Weather History & Observations

Time (EST) Temp. Heat Index Dew Point Humidity Pressure Visibility Wind Dir Wind Speed Gust Speed Precip Events Conditions
12:53 AM 75.9 °F - 62.1 °F 62% 30.17 in 10.0 mi East 15.0 mph - N/A   Mostly Cloudy
1:53 AM 75.0 °F - 62.1 °F 64% 30.15 in 10.0 mi East 12.7 mph - N/A   Scattered Clouds
2:53 AM 75.0 °F - 62.1 °F 64% 30.14 in 10.0 mi ENE 12.7 mph - N/A   Scattered Clouds
3:53 AM 75.0 °F - 64.0 °F 69% 30.14 in 10.0 mi East 13.8 mph 24.2 mph N/A   Scattered Clouds
4:53 AM 75.0 °F - 63.0 °F 66% 30.14 in 10.0 mi ENE 15.0 mph 24.2 mph N/A   Mostly Cloudy
5:53 AM 75.0 °F - 62.1 °F 64% 30.17 in 10.0 mi East 13.8 mph - N/A   Scattered Clouds
6:53 AM 75.0 °F - 61.0 °F 62% 30.18 in 10.0 mi East 15.0 mph - N/A   Mostly Cloudy
7:53 AM 77.0 °F - 62.1 °F 60% 30.18 in 10.0 mi ENE 16.1 mph 23.0 mph N/A   Scattered Clouds
8:53 AM 79.0 °F - 63.0 °F 58% 30.19 in 10.0 mi ENE 15.0 mph 23.0 mph N/A   Mostly Cloudy
9:53 AM 79.0 °F - 63.0 °F 58% 30.20 in 10.0 mi ENE 19.6 mph - N/A   Mostly Cloudy
10:53 AM 81.0 °F 82.5 °F 64.0 °F 56% 30.18 in 10.0 mi ENE 17.3 mph - N/A   Mostly Cloudy
11:53 AM 80.1 °F 81.5 °F 63.0 °F 56% 30.16 in 10.0 mi East 20.7 mph - N/A   Mostly Cloudy
12:53 PM 80.1 °F 81.7 °F 64.0 °F 58% 30.13 in 10.0 mi East 19.6 mph 26.5 mph N/A   Mostly Cloudy
1:53 PM 80.1 °F 81.7 °F 64.0 °F 58% 30.12 in 10.0 mi ENE 17.3 mph 27.6 mph N/A   Mostly Cloudy
2:53 PM 79.0 °F - 64.0 °F 60% 30.10 in 10.0 mi ENE 16.1 mph - N/A   Overcast
3:53 PM 75.0 °F - 66.9 °F 76% 30.11 in 10.0 mi NE 11.5 mph 23.0 mph 0.00 in Rain Light Rain
4:53 PM 75.9 °F - 68.0 °F 76% 30.09 in 10.0 mi East 15.0 mph 21.9 mph 0.02 in   Mostly Cloudy
5:53 PM 75.9 °F - 66.0 °F 71% 30.09 in 10.0 mi ENE 15.0 mph - N/A   Mostly Cloudy
6:53 PM 75.9 °F - 64.9 °F 69% 30.10 in 10.0 mi East 13.8 mph - N/A   Mostly Cloudy
7:53 PM 77.0 °F - 64.9 °F 66% 30.12 in 10.0 mi East 12.7 mph - N/A   Mostly Cloudy
8:53 PM 77.0 °F - 64.9 °F 66% 30.13 in 10.0 mi East 15.0 mph 23.0 mph N/A   Mostly Cloudy
9:53 PM 77.0 °F - 66.0 °F 69% 30.14 in 10.0 mi East 15.0 mph - N/A   Mostly Cloudy
10:53 PM 75.9 °F - 64.0 °F 67% 30.14 in 10.0 mi East 12.7 mph - N/A   Mostly Cloudy
11:53 PM 75.9 °F - 64.0 °F 67% 30.12 in 10.0 mi East 12.7 mph - N/A   Scattered Clouds